Regional Weather Roundup
Issued by NWS Green Bay, WI

Home | Current Version | Previous Version | Graphics & Text | Print | Product List | Glossary Off
Versions: 1 2 3 4 5 6 7 8 9 10 11 12 13 14 15 16 17 18 19 20 21 22 23 24 25 26 27 28 29 30 31 32 33 34 35 36 37 38 39 40 41 42 43 44 45 46 47 48 49 50

000
ASUS43 KGRB 171259
RWRGRB

NORTH-CENTRAL AND NORTHEAST WISCONSIN REGIONAL WEATHER ROUNDUP
NATIONAL WEATHER SERVICE GREEN BAY WI
800 AM CDT THU APR 17 2014

WIZ005-009-010>012-018-019-171400-
NORTH CENTRAL WISCONSIN

CITY           SKY/WX    TMP DP  RH WIND       PRES   REMARKS
IRONWOOD       CLOUDY    30  27  86 NE3       30.05S
MANITOWISH WTR NOT AVBL
ARBOR VITAE    NOT AVBL
EAGLE RIVER    NOT AVBL
LAND O LAKES   NOT AVBL
RHINELANDER    SNOW      31  31 100 E9        30.05R VSB 1/2
PHILLIPS       NOT AVBL
ANTIGO         NOT AVBL
TOMAHAWK       NOT AVBL
MERRILL        NOT AVBL
$$

WIZ013-073-171400-
NORTHEAST WISCONSIN

CITY           SKY/WX    TMP DP  RH WIND       PRES   REMARKS
IRON MOUNTAIN  LGT SNOW  31  29  92 SE9       30.12R FOG
MARINETTE      CLOUDY    34  30  86 SE12      30.15S
$$

WIZ017-030-035>037-045-171400-
CENTRAL WISCONSIN

CITY           SKY/WX    TMP DP  RH WIND       PRES   REMARKS
MEDFORD        NOT AVBL
WAUSAU         SNOW      33  32  96 E9        30.03R VSB 1/2
MOSINEE        LGT SNOW  32  32 100 E8        30.04R VSB 1
MARSHFIELD     PTSUNNY   34  32  92 E7        30.02R FOG
WISC RAPIDS    CLOUDY    38  32  79 NE7       30.03R
STEVENS POINT  NOT AVBL
WAUPACA        NOT AVBL
SHAWANO        NOT AVBL
CLINTONVILLE   NOT AVBL
$$

WIZ038-039-048-051-171400-
FOX VALLEY

CITY           SKY/WX    TMP DP  RH WIND       PRES   REMARKS
NWS GREEN BAY  CLOUDY    37  30  75 SE16      30.09S
APPLETON       CLOUDY    37  28  70 SE14G22   30.05S
OSHKOSH        CLOUDY    39  29  67 SE14      30.04R
FOND DU LAC    CLOUDY    39  30  70 SE14      30.05R
$$

WIZ022-050-052-171400-
EAST CENTRAL WISCONSIN

CITY           SKY/WX    TMP DP  RH WIND       PRES   REMARKS
STURGEON BAY   CLOUDY    34  30  86 SE12      30.15R
MANITOWOC      NOT AVBL
SHEBOYGAN      CLOUDY    37  29  72 S13G23    30.11R
$$

LMZ563-521-522-541>543-171400-
LAKESHORE

STATION/POSITION TIME  TEMP    WIND        PRES    VSBY  WAVE
                       AIR SEA DIR/SP/G                  HT/PER
                 (UTC) (F)     (DEG/KT/KT) (MB)    (MI)  (FT/S)
SHEBOYGAN LKSHOR 1200   38     140/ 29/ 33 1019.4F
TWO RIVERS CG    1200   37                   N/A       6
NORTHPORT PIER   1200   35     130/ 13/ 15 1022.4S
SISTER BAY LKSHO 1200   32     160/ 15/ 25   N/A
MENOMINEE LKSHOR 1200   33     130/ 13/ 15 1021.8R
$$



USA.gov is the U.S. government's official web portal to all federal, state and local government web resources and services.